GFSGBSN_250_rhum_273.txt.gz
RH
22 24 22 20 47 100 100 100 100 100 100 100 100 100 100 100 100 93 100 100 92 91 85 99 73 100 100 100 100 99 86 73 75 77 80 83 80 78 84 81 88 96 71 72 100 100 100
22 25 24 22 19 63 100 100 100 100 100 100 100 100 100 100 100 100 100 86 89 100 88 100 84 54 88 100 100 98 100 99 98 73 78 78 59 57 58 57 55 65 91 100 96 94 96
21 21 25 24 21 19 78 100 100 100 100 100 100 100 100 100 100 100 100 94 94 91 100 100 100 99 89 66 81 80 51 65 74 74 85 68 64 94 96 99 100 100 100 100 100 100 85
20 19 20 23 22 20 25 81 100 100 100 100 100 100 100 100 100 100 100 100 78 90 58 72 99 100 100 100 97 68 62 55 86 73 88 100 100 100 100 98 90 75 82 91 82 73 87
19 17 18 20 21 20 20 23 68 100 100 100 100 100 100 100 100 100 100 100 96 82 84 100 81 66 94 98 86 100 99 100 100 100 100 100 92 83 95 97 82 71 75 98 100 100 81
20 18 17 18 21 22 19 20 28 92 100 100 100 100 100 100 100 100 100 100 100 100 97 93 84 45 74 74 100 92 85 88 71 73 76 91 75 63 84 83 83 70 57 65 50 51 69
16 15 14 15 17 20 21 20 20 50 100 100 100 100 100 100 100 100 100 99 100 100 100 100 78 69 77 75 89 95 100 100 96 78 80 80 98 82 68 60 68 55 45 42 38 37 42
12 12 11 11 15 18 22 20 22 21 77 100 100 100 100 100 100 100 100 100 99 100 100 100 97 83 85 80 90 98 88 100 100 100 100 100 100 92 85 78 52 49 40 43 40 35 37
11 12 12 11 12 16 19 22 22 21 30 95 100 100 100 100 100 100 100 100 100 100 100 100 100 89 83 68 80 81 77 62 74 65 81 74 63 78 55 52 54 59 48 50 35 34 30
13 13 13 13 12 16 17 21 23 24 19 41 92 100 100 100 100 100 100 100 100 100 100 100 100 94 80 75 57 56 67 57 60 53 44 49 49 55 60 66 63 53 34 27 36 33 27
13 12 14 15 14 15 17 20 25 26 25 17 47 100 100 100 100 100 100 100 100 100 100 100 100 100 87 86 78 64 68 72 66 65 64 64 60 58 64 51 41 31 30 39 36 35 43
10 10 12 13 16 17 17 19 26 26 30 22 23 72 100 100 100 100 100 100 100 100 100 100 100 100 90 79 74 74 74 71 70 70 69 66 54 48 44 30 26 22 38 42 56 51 40
11 13 11 12 19 19 17 19 25 29 32 30 22 33 100 100 100 100 100 100 100 100 100 100 100 100 100 80 68 67 67 63 59 62 50 44 35 29 29 29 26 40 52 62 40 34 32
26 24 20 18 14 22 21 19 22 27 32 35 28 25 59 100 100 100 100 100 100 100 100 100 100 100 100 93 74 65 61 56 40 34 35 37 26 30 32 28 40 66 61 43 28 25 24
49 42 32 26 23 15 22 22 22 26 32 37 35 29 37 81 100 100 100 100 100 100 100 100 100 100 100 99 78 60 51 41 36 46 40 34 38 41 39 63 72 55 38 28 24 22 19
53 48 42 35 22 21 14 22 24 26 32 37 41 36 41 40 96 100 100 99 100 100 100 100 100 100 100 100 84 71 60 41 42 48 54 51 59 87 92 72 50 36 26 25 22 20 16
47 40 33 30 26 18 19 15 23 27 30 37 45 43 39 41 69 100 100 100 100 100 100 100 100 100 100 100 100 93 65 59 66 89 100 100 100 88 62 44 34 27 21 20 19 15 11
43 33 21 17 15 20 20 16 22 25 28 34 46 51 48 42 53 81 94 100 100 100 100 100 100 100 100 100 100 100 99 100 100 100 100 91 78 57 44 34 28 23 20 21 17 12 12
44 32 20 16 13 12 17 16 13 26 27 29 41 52 56 48 46 66 92 100 100 100 100 100 100 100 100 100 100 100 100 100 100 95 84 70 53 42 34 26 21 20 22 16 13 12 14
47 27 24 18 12 11 12 14 10 14 33 33 40 57 70 62 78 97 82 100 100 100 100 100 100 100 100 100 100 100 100 95 88 79 69 56 41 33 27 23 21 23 19 14 14 16 20
46 25 28 20 16 13 13 17 19 13 23 37 42 57 70 54 74 96 76 97 100 100 100 100 100 100 100 100 100 100 97 88 76 65 53 41 34 31 26 26 24 22 14 17 18 22 33
39 23 22 17 14 16 16 16 22 24 20 33 48 60 79 64 100 100 61 82 100 100 100 100 100 100 100 100 100 100 90 82 64 58 46 40 35 36 30 32 28 16 16 18 20 38 41
32 21 19 11 11 15 16 17 23 16 18 36 48 59 88 78 75 76 89 90 100 100 100 100 100 100 95 98 100 100 94 82 65 56 48 49 48 39 36 34 19 16 21 22 36 47 36
29 18 17 9 10 14 18 21 19 13 16 39 59 72 81 83 96 73 96 99 100 100 100 100 100 100 100 100 99 93 90 85 70 61 62 53 53 46 36 26 16 20 23 27 48 52 38
25 16 14 8 10 19 24 23 18 13 22 43 50 65 100 100 100 100 95 90 100 100 100 100 100 100 100 97 99 94 96 88 73 69 62 57 49 36 28 19 21 23 28 43 62 51 35
21 15 12 7 11 22 26 20 20 18 29 59 86 81 100 100 76 100 100 76 98 100 97 91 100 100 95 100 100 100 93 80 74 75 58 48 40 31 22 22 25 27 44 63 66 41 32
15 13 11 7 17 16 28 21 24 22 43 74 93 85 97 100 100 100 100 89 100 90 87 96 99 100 100 100 97 85 79 78 70 60 51 44 35 26 24 26 28 39 68 73 50 38 26
10 9 8 7 20 20 27 27 29 35 70 94 98 99 98 99 100 100 100 88 76 89 92 90 95 76 93 97 97 85 70 69 66 51 45 38 29 25 28 30 34 61 74 62 42 30 23
8 6 6 7 20 19 29 32 46 88 100 100 100 100 100 100 100 100 100 100 100 100 100 100 90 71 72 70 70 72 76 60 56 55 44 34 26 29 32 34 53 71 82 50 35 24 18

GFSGBSN_250_rhum_279.txt.gz
RH
27 28 26 25 26 28 21 18 17 19 97 100 100 100 100 100 100 100 100 98 94 94 81 100 100 100 100 100 100 100 100 97 87 73 76 90 100 100 100 95 92 87 90 93 99 100 94
36 33 31 28 26 30 27 22 19 18 29 99 100 100 100 99 95 100 100 100 90 100 85 86 96 100 100 96 99 100 100 94 92 90 82 75 64 67 93 100 100 100 100 100 100 100 100
37 39 36 33 32 27 29 28 20 19 18 41 100 100 100 100 97 87 100 100 100 98 89 76 89 100 100 100 99 77 90 100 97 98 100 100 100 100 95 100 100 100 100 100 100 100 100
38 46 41 38 32 32 24 28 25 20 21 18 58 100 100 100 100 83 97 100 100 100 100 89 96 88 83 91 100 100 100 85 95 100 100 100 100 99 100 100 100 100 100 100 100 100 100
29 29 28 28 25 26 26 24 27 26 22 20 18 64 99 100 100 100 91 94 95 100 98 98 100 88 73 77 93 100 100 100 89 96 100 100 100 93 97 100 78 89 100 100 100 100 100
26 20 17 17 21 19 20 18 23 24 24 22 19 18 62 100 100 100 100 89 76 90 100 100 93 89 80 79 79 83 93 100 100 100 100 100 100 100 100 100 100 100 100 100 100 100 100
15 15 14 14 15 17 17 18 17 20 23 24 21 18 18 66 100 100 100 100 93 83 98 100 98 95 89 90 81 74 81 75 77 100 100 100 100 100 100 100 100 100 100 100 98 85 90
13 11 10 11 12 15 16 18 18 17 19 25 21 22 19 18 72 100 100 100 100 100 100 93 93 97 100 100 81 67 76 84 82 67 84 95 84 97 95 100 100 100 100 100 100 98 98
8 7 7 8 8 9 13 16 18 16 18 21 24 23 22 21 20 83 100 100 100 100 100 95 92 72 85 98 85 76 80 88 81 78 92 100 97 97 93 84 93 84 89 95 99 100 99
7 7 7 7 8 9 10 13 17 18 18 21 25 23 26 26 22 24 93 100 100 100 100 99 100 80 79 80 79 86 89 85 88 97 93 98 97 94 97 93 93 94 96 94 100 100 100
8 7 7 8 8 9 11 12 15 18 20 20 27 24 30 28 27 28 34 100 100 100 100 100 100 92 72 75 73 74 81 94 91 91 96 96 100 100 99 100 100 99 99 100 91 91 86
8 7 7 8 9 10 11 13 16 17 19 21 28 42 31 35 30 31 25 59 99 100 100 100 100 100 82 72 70 69 70 71 82 84 97 100 100 100 98 98 99 99 95 90 81 76 66
9 9 9 8 9 10 12 13 16 19 20 22 28 35 37 36 38 34 29 25 87 100 100 100 100 100 100 90 59 59 59 52 72 81 82 89 96 98 97 90 83 82 79 70 59 48 47
10 9 11 10 10 12 15 15 17 20 22 24 27 32 40 47 78 49 32 28 46 97 100 100 100 100 100 100 66 58 45 52 58 71 70 76 76 77 82 77 71 68 62 58 52 41 30
10 10 12 13 11 13 18 19 18 19 23 24 26 30 37 46 100 100 52 36 23 80 100 100 100 100 100 100 89 69 50 48 43 51 58 60 64 68 64 58 56 57 49 25 19 18 15
11 10 10 13 13 14 15 18 21 22 23 25 26 28 40 46 57 98 55 35 35 50 100 100 100 100 100 100 100 94 58 47 44 40 39 43 49 50 53 50 43 31 19 16 14 18 51
10 9 10 10 10 13 15 16 18 22 26 26 26 27 35 40 42 42 34 38 28 35 78 100 100 100 100 100 100 100 80 58 48 45 41 42 35 28 26 22 16 17 16 19 35 74 52
11 10 10 12 13 14 14 14 15 17 20 22 24 29 34 50 98 64 39 28 30 37 49 100 100 100 100 100 100 100 83 67 57 53 52 41 30 24 20 19 19 22 30 48 87 55 33
13 13 14 17 17 15 15 15 16 14 15 19 25 29 39 97 85 67 38 28 36 41 48 99 100 100 100 100 100 100 95 79 66 55 46 37 30 26 24 26 33 40 78 90 56 32 29
14 16 20 23 23 18 16 15 15 16 17 18 21 22 33 50 86 69 45 26 34 40 41 83 100 100 100 100 100 100 94 86 72 53 48 39 40 41 50 69 85 99 78 56 35 31 28
17 21 23 26 31 34 31 21 16 16 16 18 23 21 26 27 51 40 34 40 45 46 43 69 100 100 100 100 100 100 100 100 100 98 95 96 96 100 100 100 90 69 60 37 33 30 19
22 23 25 32 31 32 35 39 32 24 17 17 24 26 25 29 44 57 46 36 39 54 47 45 100 100 100 100 100 100 98 100 100 100 100 100 100 100 100 85 72 62 46 34 33 25 15
19 18 24 36 41 41 43 47 52 43 29 21 31 33 36 91 100 100 79 59 45 57 53 48 100 100 100 100 100 100 100 100 100 100 100 100 100 100 82 80 69 52 38 35 29 19 15
15 16 24 44 56 50 60 61 61 52 59 40 38 45 44 89 96 90 81 86 46 48 58 66 91 100 100 100 100 100 100 100 100 100 100 100 100 89 86 76 60 47 42 36 26 17 17
16 20 27 51 68 74 75 78 67 56 58 61 40 42 46 81 100 91 100 100 72 68 70 70 83 100 100 100 100 100 100 98 100 100 100 100 99 90 78 72 54 51 43 33 22 16 20
26 33 44 68 82 91 82 72 58 54 52 57 53 42 60 66 74 100 97 100 83 75 68 56 70 100 100 100 100 100 100 100 98 100 100 100 94 84 74 60 59 52 42 29 19 21 24
31 44 57 70 83 83 78 67 56 53 53 52 53 47 53 56 63 97 88 100 81 72 70 63 70 96 100 100 99 100 100 100 100 100 100 96 86 82 74 62 60 45 34 23 20 24 30
44 48 63 75 82 85 76 66 56 49 44 46 50 51 47 54 79 82 89 100 100 91 86 97 74 87 100 100 100 100 100 100 100 100 100 100 88 77 69 63 50 36 27 23 24 26 42
54 56 60 67 71 68 72 86 59 36 37 47 35 48 36 62 82 62 91 100 94 100 100 97 72 100 100 100 100 100 100 100 100 100 100 95 79 73 62 49 38 31 27 25 26 38 29

GFSGBSN_250_rhum_282.txt.gz
RH
18 18 18 17 19 16 18 18 20 23 21 20 18 28 100 100 100 100 79 93 95 98 76 99 100 100 100 100 97 100 100 100 99 96 80 94 94 94 93 94 90 88 93 93 82 89 99
19 16 17 20 22 21 21 20 20 22 23 25 22 18 34 100 99 100 100 83 98 96 93 96 83 100 100 100 100 98 100 100 100 100 100 93 96 98 99 100 100 96 97 93 99 100 100
18 19 20 20 21 24 25 24 24 22 25 25 29 22 18 30 100 100 100 100 100 100 100 99 88 94 79 100 95 100 100 100 100 100 100 100 100 100 100 100 100 100 100 91 100 100 100
29 30 30 27 26 28 30 28 28 23 26 28 29 29 22 19 57 100 100 89 90 94 98 100 98 84 89 84 84 98 93 100 100 100 100 100 100 100 100 100 100 100 100 100 100 100 100
31 30 31 33 31 32 34 35 28 28 22 28 30 34 27 23 21 86 100 99 97 100 95 100 100 90 83 89 71 78 73 85 97 100 100 100 100 100 100 100 100 100 100 100 100 100 100
36 31 32 30 28 30 31 30 29 24 25 24 31 30 36 25 22 25 96 100 100 100 100 100 87 100 98 82 75 76 76 68 74 97 100 99 100 100 100 100 100 100 100 100 100 100 100
29 28 28 31 29 27 24 20 20 20 22 23 24 31 31 35 26 22 21 100 100 100 100 100 100 98 99 97 83 77 86 77 75 73 69 88 97 100 100 100 100 100 100 100 100 100 100
26 29 30 26 23 18 16 15 15 15 17 20 18 28 35 35 34 27 21 25 100 100 100 100 100 100 96 89 87 91 77 73 84 66 62 81 92 96 100 98 100 100 100 100 100 100 100
28 28 27 20 16 14 14 13 12 12 14 15 18 22 28 32 37 32 29 21 35 100 100 100 100 100 84 80 68 89 83 82 76 82 74 83 81 86 97 97 99 100 100 100 100 100 100
26 24 19 14 14 14 13 10 9 8 12 13 16 19 24 27 34 35 39 29 22 58 100 100 100 100 81 66 80 62 65 81 82 83 83 87 90 94 98 98 97 100 100 100 100 100 100
27 20 14 13 14 12 8 7 7 7 8 11 14 20 22 24 31 32 36 33 26 21 73 100 100 100 100 92 65 64 60 57 68 82 88 82 94 89 97 98 96 100 100 100 100 100 100
19 14 14 14 11 8 8 8 7 7 7 9 14 19 24 23 25 32 29 34 27 21 29 76 100 100 100 100 99 56 55 58 54 54 65 89 95 97 100 100 97 99 100 100 100 100 100
16 14 13 11 8 9 8 7 7 7 8 8 13 19 25 24 25 30 28 30 25 19 21 33 81 100 100 100 100 84 58 49 44 52 56 54 56 72 77 83 87 90 85 92 96 96 90
14 12 10 8 9 10 9 8 8 8 8 8 10 17 25 30 33 35 30 33 27 23 29 29 37 92 100 100 100 100 72 56 44 40 50 58 61 70 84 80 75 73 66 72 77 66 58
12 10 8 10 11 10 10 10 9 8 9 10 12 16 25 34 35 42 31 26 27 32 40 36 36 45 100 100 100 100 100 76 53 40 35 38 47 49 54 51 51 48 49 50 51 40 34
11 9 10 11 12 12 11 11 10 9 11 12 14 16 27 37 45 45 39 34 36 36 47 44 38 42 76 100 100 100 100 92 65 45 40 36 36 32 32 35 37 37 33 29 25 19 16
9 10 12 12 12 12 12 12 11 11 13 14 16 19 23 43 67 69 75 53 42 47 53 47 42 54 58 100 100 100 100 82 83 68 42 33 28 25 26 27 27 24 22 17 16 14 15
11 12 12 12 13 12 12 13 14 12 16 17 18 22 25 42 79 99 98 54 65 49 45 40 44 55 55 100 100 100 100 99 82 65 53 40 31 24 20 17 19 18 15 14 15 18 29
12 12 12 13 12 11 11 11 16 14 21 23 23 24 26 36 63 60 91 66 62 48 40 41 44 48 51 100 100 100 100 91 80 77 69 50 40 31 23 20 18 15 16 16 32 47 86
13 13 13 13 10 11 10 10 13 18 19 26 27 28 29 34 57 72 74 67 84 48 45 52 66 55 51 100 100 100 100 100 80 71 64 52 37 25 19 17 17 24 30 47 91 81 63
14 14 14 10 10 12 12 14 14 17 21 23 31 32 31 39 51 60 77 69 89 100 65 92 97 86 65 100 100 100 100 99 74 69 54 42 31 35 38 43 45 53 70 98 71 57 42
14 15 12 11 11 13 18 18 19 20 22 24 28 36 37 43 69 66 66 58 95 100 81 72 70 65 58 100 100 100 100 94 76 70 55 47 58 68 81 85 96 100 95 65 62 48 36
15 14 12 12 13 16 24 20 20 20 23 27 26 30 37 45 51 54 59 48 51 82 80 66 91 56 48 100 100 100 100 100 97 94 97 70 89 96 100 100 100 94 76 69 55 43 38
16 13 14 15 18 23 29 29 21 18 19 26 25 26 32 40 42 53 54 96 85 59 41 44 50 51 63 100 100 100 100 100 100 74 100 100 97 100 100 100 100 96 77 61 50 43 30
15 14 17 19 24 27 36 40 44 38 26 21 23 25 32 37 46 79 98 100 100 87 75 62 58 76 62 100 100 100 100 100 100 96 100 100 100 100 100 93 95 84 66 55 46 37 25
13 15 18 20 23 29 43 60 60 63 51 24 25 26 30 42 82 100 100 100 100 89 68 51 48 60 56 100 100 100 100 100 100 100 100 94 100 98 100 100 89 74 63 48 39 29 22
13 14 14 17 20 28 49 74 69 68 71 41 28 27 30 46 84 99 100 100 100 100 93 77 79 79 61 100 100 100 100 100 100 100 100 100 100 100 100 94 83 70 59 46 31 24 21
13 13 14 15 19 39 65 80 89 91 80 58 44 27 32 42 84 100 100 100 100 98 96 89 79 73 99 100 100 100 100 100 100 100 100 100 100 100 99 95 79 62 50 36 29 23 22
13 14 17 18 23 52 72 91 100 100 97 72 65 37 33 49 100 100 100 100 100 76 98 100 100 99 100 100 100 100 100 100 100 100 100 100 100 100 100 89 68 53 40 33 27 23 27

GFSGBSN_250_rhum_285.txt.gz
RH
23 21 19 19 18 16 14 14 14 14 15 14 13 15 15 15 14 45 100 88 67 53 88 98 98 100 95 100 100 100 100 100 100 100 100 99 85 84 82 81 81 72 77 80 83 78 84
24 22 20 19 17 16 14 13 12 14 14 14 16 17 18 18 18 17 40 100 95 81 78 86 100 97 93 88 97 100 100 100 100 100 100 100 100 100 98 92 90 86 86 89 97 100 100
25 21 19 18 16 15 15 14 12 13 15 15 16 20 20 22 21 20 20 32 100 91 73 68 74 94 82 99 94 83 94 100 100 100 100 100 100 100 100 98 96 97 98 100 100 100 97
28 23 20 18 16 14 14 16 18 16 16 17 16 20 24 23 23 23 21 20 27 100 100 77 78 75 85 94 84 78 67 80 100 100 100 100 100 100 100 100 100 100 100 100 98 100 100
30 24 22 20 17 16 16 18 22 23 22 24 25 22 24 26 25 27 27 24 20 24 100 100 95 90 77 60 71 80 79 76 89 96 100 100 100 100 100 100 100 100 100 99 100 100 100
32 26 24 21 18 17 17 19 23 25 24 25 26 26 28 23 29 27 30 31 26 20 21 100 100 100 88 84 66 63 85 72 64 71 70 100 100 100 100 100 100 100 100 100 100 100 100
32 27 26 22 23 23 24 26 27 27 27 28 25 24 26 27 22 29 31 33 32 28 22 22 100 100 100 99 98 60 61 89 77 78 78 100 100 97 100 100 100 100 100 100 100 100 100
35 33 30 29 27 26 27 26 26 23 24 23 22 24 22 24 20 24 27 37 37 33 30 22 43 100 100 99 90 92 63 60 72 71 81 90 100 89 96 100 100 100 100 100 100 100 100
34 32 32 33 27 27 28 27 23 18 16 19 18 21 20 19 20 23 28 32 41 37 34 27 23 74 100 100 98 94 59 51 59 71 84 78 82 89 97 95 100 100 100 100 100 100 100
39 39 35 32 26 27 26 21 16 13 12 13 13 14 15 15 17 20 28 33 40 42 41 29 26 24 96 100 100 91 90 56 53 60 73 83 84 85 83 84 88 100 100 100 100 100 100
48 42 38 30 29 28 22 15 13 12 11 12 12 13 13 15 14 19 28 32 36 40 35 36 26 24 34 100 100 100 100 73 54 51 50 65 80 78 78 78 86 89 97 100 100 100 100
52 41 33 31 27 24 17 13 12 11 12 12 12 11 12 13 16 18 26 28 31 35 33 41 35 26 29 51 100 100 100 99 64 51 58 56 63 82 78 77 80 83 85 98 100 100 99
50 38 35 25 24 20 14 11 11 11 10 9 8 8 8 10 14 18 28 26 30 29 36 41 39 37 33 31 61 100 100 100 99 70 49 46 55 56 72 82 76 77 76 70 76 84 79
43 36 26 24 22 16 11 10 11 9 8 8 8 9 9 10 10 18 30 24 23 31 35 45 46 45 40 33 33 76 100 100 100 100 71 47 41 38 46 65 72 62 57 57 59 73 64
38 30 24 23 16 12 10 10 9 8 9 10 10 10 10 10 10 15 23 23 26 37 38 47 48 43 41 38 38 44 96 100 100 100 97 82 54 46 48 48 48 46 40 39 42 45 40
31 29 25 17 13 11 11 9 10 11 11 10 10 10 10 10 10 13 22 29 31 33 40 46 42 42 44 48 50 43 55 100 100 100 98 91 76 56 45 40 36 31 28 29 26 28 24
32 26 20 14 11 12 9 10 11 12 11 12 10 11 9 10 10 12 21 24 28 31 42 43 37 44 45 48 54 38 38 100 100 100 98 88 80 67 50 36 31 23 21 20 18 18 16
26 24 16 13 11 10 10 12 12 13 12 12 11 10 10 10 12 13 22 33 35 35 43 38 36 45 48 55 58 42 40 100 100 100 100 92 78 61 47 37 30 24 18 17 13 12 12
26 17 14 11 10 10 12 13 14 14 14 12 12 11 11 12 12 14 22 34 42 35 42 47 46 51 54 60 57 42 61 100 100 100 94 94 74 55 39 34 29 24 17 14 12 12 12
19 15 12 10 10 12 13 13 15 14 14 15 13 12 13 13 14 15 19 44 67 38 38 48 52 55 54 57 50 44 77 100 100 100 90 85 67 50 38 32 25 18 16 16 14 15 24
16 13 12 11 12 13 13 14 15 13 12 17 14 14 14 15 19 25 36 50 64 82 59 53 57 57 58 47 47 54 100 100 100 100 91 74 63 43 33 28 24 20 19 26 36 35 62
13 13 12 12 13 14 14 15 13 11 12 18 17 17 18 19 20 32 45 62 68 98 96 74 63 56 60 55 44 73 100 100 100 96 92 72 52 42 38 33 33 47 49 56 74 62 63
13 13 13 14 14 14 14 12 11 11 12 19 19 20 23 23 23 23 39 51 88 100 100 90 94 68 54 50 47 98 100 100 99 99 87 70 62 49 42 45 60 73 73 82 67 68 71
13 13 14 14 15 15 13 12 12 13 14 18 24 25 33 29 31 40 62 90 98 100 90 87 72 55 52 48 48 100 100 100 100 100 88 72 64 62 61 83 87 92 93 80 74 74 52
14 14 15 15 15 15 12 13 14 17 20 19 23 28 42 40 41 61 88 100 100 100 94 88 91 70 70 81 92 100 100 100 100 96 90 83 83 60 75 98 89 98 96 85 79 59 40
14 14 15 15 16 15 14 15 23 23 26 20 26 30 42 48 75 80 84 100 100 100 88 100 98 82 81 96 100 100 100 100 100 100 92 91 100 98 100 100 100 100 98 93 68 48 33
14 14 15 16 16 15 17 19 31 29 32 27 28 35 36 56 63 93 93 86 99 100 100 100 83 79 86 82 92 99 100 96 93 100 96 84 94 100 100 100 100 100 100 82 58 39 27
14 15 16 17 16 18 22 24 36 36 28 29 36 35 37 48 61 80 100 100 100 100 100 100 99 92 78 56 57 100 100 93 100 100 100 100 100 100 100 100 100 100 97 75 46 32 25
14 15 16 16 17 21 24 27 40 53 42 27 29 32 35 35 60 70 100 100 100 82 99 100 100 100 70 44 46 100 100 100 100 100 100 100 100 100 100 100 100 100 87 57 38 29 26

GFSGBSN_250_rhum_291.txt.gz
RH
54 44 34 30 24 21 19 18 16 14 13 15 16 14 14 14 12 12 12 11 12 13 21 85 99 66 55 67 86 97 100 94 90 100 100 100 100 100 100 100 100 100 98 92 82 69 74
69 57 47 40 27 23 20 19 17 17 18 17 19 19 17 16 16 14 13 13 12 11 11 11 16 48 90 74 83 76 95 99 100 98 100 96 100 95 100 100 100 100 100 100 100 100 100
74 68 57 45 38 26 24 21 20 23 24 22 21 20 19 18 17 16 15 14 13 13 12 11 11 11 11 25 74 87 90 88 96 98 100 89 85 86 92 100 100 100 100 100 100 100 100
76 70 60 49 34 27 27 25 24 24 24 27 26 22 20 19 18 17 15 14 13 12 12 11 11 11 11 10 10 15 56 70 76 91 91 93 99 88 76 89 100 100 100 100 100 100 100
74 66 64 58 35 30 30 28 29 29 26 23 24 26 26 24 21 19 18 18 15 13 12 12 11 10 10 12 11 10 10 13 46 59 85 83 74 87 85 73 80 100 100 100 100 100 100
73 69 70 66 49 40 39 36 32 29 28 25 21 20 21 22 24 23 21 19 18 16 14 12 11 11 11 11 13 12 11 11 11 23 47 66 62 57 77 76 70 78 94 100 100 100 100
89 79 75 75 68 59 49 44 40 30 24 22 19 17 16 16 16 17 20 21 20 18 15 13 12 13 11 11 13 13 13 14 11 12 17 37 45 44 50 69 68 67 76 83 97 100 100
100 100 94 89 74 65 58 53 46 39 26 22 18 16 14 13 13 14 14 17 15 14 13 12 13 15 14 16 14 13 14 14 14 13 12 26 78 86 56 52 54 64 78 77 83 92 95
100 100 100 94 91 73 64 59 58 49 28 20 19 17 15 15 17 16 15 12 12 10 11 11 12 14 16 15 16 15 14 17 19 16 15 15 37 85 92 64 46 49 78 88 82 84 87
91 100 98 90 82 80 74 69 51 36 24 20 19 18 17 19 17 15 12 13 14 13 12 12 13 14 14 15 17 18 20 26 28 23 20 19 19 38 90 93 68 46 58 75 77 74 79
94 92 92 88 79 76 75 65 49 33 22 23 18 22 22 20 17 13 14 15 16 13 14 11 12 16 19 17 18 21 29 34 42 36 32 34 29 24 53 100 97 79 56 49 50 49 54
99 98 93 83 78 74 72 60 39 25 22 23 27 25 21 16 16 18 22 18 15 12 7 8 11 14 17 19 19 22 35 51 57 48 44 54 39 31 25 54 91 98 77 63 48 44 51
94 98 88 91 88 86 79 53 29 25 28 38 33 22 23 24 20 20 16 14 11 7 9 8 10 14 17 18 19 30 47 76 72 61 59 63 50 38 30 24 42 91 87 74 65 47 56
97 98 95 92 89 78 61 37 28 36 46 36 30 27 28 22 19 17 13 9 7 9 10 10 11 14 14 18 21 33 54 80 74 72 89 82 63 46 33 29 29 69 95 88 67 58 50
88 88 92 91 70 46 35 40 52 45 36 34 35 34 26 17 17 12 9 8 9 10 11 11 12 13 15 16 22 38 60 86 93 76 92 96 72 47 34 34 48 60 77 91 85 63 44
88 85 77 50 42 60 62 58 49 39 39 42 36 24 18 17 14 9 8 9 10 9 12 11 14 16 17 18 26 40 64 88 98 93 100 95 70 47 34 53 82 85 98 98 91 74 65
59 47 54 64 63 61 56 51 48 48 41 32 27 21 17 16 11 9 9 9 10 9 10 12 18 20 20 20 36 59 74 91 91 82 96 90 68 47 40 78 94 100 100 94 83 72 58
66 69 67 66 58 56 54 50 43 37 32 29 30 21 18 13 9 9 9 10 11 11 12 12 17 21 19 28 37 68 69 88 88 92 94 83 64 45 37 94 100 100 94 84 73 52 39
66 61 63 58 58 52 49 47 42 46 41 31 23 22 17 11 9 9 11 13 14 13 12 11 15 26 28 33 42 60 68 82 82 90 86 74 54 40 46 93 97 99 87 55 39 33 33
70 64 57 56 53 54 48 48 47 47 41 28 21 22 13 10 10 11 13 14 15 14 14 14 15 23 36 35 46 62 72 81 73 84 80 66 47 49 93 99 92 93 62 48 40 30 28
65 61 59 64 59 52 47 46 37 34 25 27 24 18 10 10 11 13 14 14 15 15 17 15 16 24 39 43 49 69 76 69 69 78 73 58 42 44 100 88 88 71 55 42 37 30 23
71 65 65 68 60 54 56 40 30 24 24 27 24 13 10 11 12 14 16 16 16 17 18 17 22 29 45 63 72 87 91 78 85 94 68 53 42 100 90 100 92 70 52 51 34 29 23
67 68 67 65 55 41 40 26 25 22 22 24 16 10 12 13 13 15 17 15 16 18 21 19 34 60 68 74 77 71 68 76 80 80 60 48 51 85 94 89 79 62 69 58 35 33 22
70 74 71 62 40 32 26 23 21 20 22 19 13 11 14 14 14 17 18 17 16 19 20 25 51 95 95 67 81 73 78 71 67 66 54 49 65 98 94 87 81 59 100 53 37 42 24
68 60 41 32 26 24 25 23 21 21 20 14 12 13 15 14 16 18 18 17 18 21 22 31 40 90 100 100 78 67 84 81 71 57 46 64 76 99 85 92 70 82 84 43 56 31 34
35 31 28 25 22 22 23 22 21 20 14 13 13 14 15 14 17 16 18 18 19 22 24 40 91 59 80 79 85 86 89 71 63 50 47 55 52 80 100 99 78 70 60 56 46 34 53
27 25 21 20 21 22 21 21 19 14 12 14 14 15 15 16 16 15 20 17 17 20 28 56 89 84 71 87 99 84 69 73 54 53 58 55 87 100 100 95 81 80 64 60 46 69 88
21 19 19 19 19 20 21 19 13 13 14 14 14 15 16 16 15 16 19 16 19 24 42 84 100 100 88 99 89 78 74 58 58 57 61 70 100 100 100 97 94 84 67 68 62 93 100
17 18 18 18 18 19 17 12 13 13 14 14 15 16 16 14 15 19 20 18 22 36 52 85 100 100 100 97 91 75 64 58 60 63 67 100 100 90 100 100 100 81 73 72 92 100 100

GFSGBSN_250_rhum_297.txt.gz
RH
100 96 91 82 87 83 77 65 56 57 54 40 32 31 25 21 19 16 15 12 11 10 9 9 9 9 9 16 27 45 94 91 97 93 80 64 80 100 98 89 76 88 87 82 81 86 93
100 99 96 92 84 83 85 82 80 67 67 63 59 53 46 38 24 18 16 14 13 11 9 9 9 10 10 11 10 11 19 75 86 90 96 90 100 97 93 87 88 82 78 71 75 73 71
100 100 98 100 98 91 99 92 90 89 77 66 63 61 55 51 36 21 18 17 15 14 14 14 14 14 14 15 12 13 11 11 14 19 26 51 56 62 68 82 97 80 68 71 73 83 83
94 98 100 99 100 100 100 97 91 86 76 65 64 60 61 53 41 24 22 20 18 21 20 20 21 19 20 16 17 16 14 14 13 12 12 12 12 13 13 18 41 64 67 59 54 68 71
100 100 91 95 86 86 100 99 94 91 94 89 70 69 71 62 56 39 32 30 26 22 24 28 24 22 22 20 18 18 17 16 15 13 12 12 12 11 11 11 11 12 12 11 11 16 20
100 100 100 94 94 100 100 100 100 100 96 95 90 86 86 80 61 59 51 49 41 34 28 22 21 23 24 24 22 19 18 17 17 16 14 14 13 12 12 11 10 10 10 9 10 10 9
100 100 100 93 100 100 100 100 100 100 100 100 93 82 77 68 74 73 65 56 44 43 40 36 26 20 19 21 22 22 20 22 22 22 19 17 16 14 13 12 11 10 9 8 8 9 8
100 100 100 100 100 100 100 97 86 82 70 59 64 67 67 53 53 52 64 63 52 44 44 36 36 29 26 18 16 17 17 16 16 16 17 18 18 16 16 15 13 12 10 8 8 8 7
100 100 100 100 94 83 67 70 73 68 80 70 65 70 60 69 54 53 44 46 43 38 28 40 34 34 35 24 16 14 14 14 14 13 14 14 15 15 17 16 15 14 13 11 9 8 8
91 95 92 88 80 90 83 68 67 60 61 78 64 62 58 56 51 57 55 50 50 41 37 31 32 40 34 21 17 15 14 13 12 12 13 12 12 12 13 14 15 14 13 11 10 9 9
100 99 91 100 96 81 83 90 77 58 64 64 66 67 57 62 58 56 57 53 49 46 33 28 29 23 17 15 17 17 16 12 12 12 12 12 11 12 11 11 11 11 12 12 11 11 12
100 98 100 90 90 98 96 94 82 53 66 64 53 59 69 67 70 63 53 44 39 33 32 30 18 13 12 11 13 13 11 10 11 10 11 10 10 10 11 12 14 17 17 17 17 17 18
92 100 100 87 68 84 84 76 74 65 74 72 70 71 64 65 61 53 48 40 40 44 29 16 13 16 14 14 12 11 10 11 11 10 11 10 11 13 17 19 24 24 27 27 26 27 27
99 81 75 88 91 73 70 67 65 72 86 81 72 68 69 60 56 50 47 48 42 24 15 14 18 18 17 14 12 10 9 9 10 10 10 10 13 17 25 31 32 37 39 38 39 48 36
82 89 88 92 75 85 76 70 80 78 79 78 77 71 68 56 52 54 47 28 26 23 23 17 22 21 18 13 9 11 11 10 9 9 8 11 16 23 30 37 54 53 52 59 82 64 48
100 93 88 87 87 84 76 80 78 78 82 81 80 66 60 58 46 32 35 43 39 32 25 24 22 20 14 10 11 10 8 10 10 10 11 20 24 34 46 55 67 78 79 79 87 67 48
97 91 87 90 91 87 85 86 88 87 88 80 74 59 41 34 39 46 52 48 42 31 28 24 18 17 13 12 10 8 10 10 11 11 15 50 59 65 58 72 96 98 90 96 67 60 65
90 86 91 91 86 84 84 80 77 71 58 41 36 55 57 53 50 55 50 43 36 32 25 22 16 17 14 10 8 10 11 12 13 13 21 38 65 78 75 94 99 89 76 70 60 60 60
45 44 45 47 45 44 48 57 61 56 50 59 68 62 52 46 48 44 42 36 27 23 22 18 16 16 12 10 11 11 12 12 19 21 23 44 35 63 96 100 97 79 69 59 44 69 81
87 76 74 73 72 71 76 84 78 62 58 66 68 59 51 50 46 44 39 32 23 18 20 18 17 14 10 12 12 14 16 18 17 42 57 73 76 67 74 87 86 72 64 53 52 80 99
100 100 96 93 86 88 92 87 74 73 74 70 69 56 55 56 45 41 32 23 18 20 17 20 16 11 11 14 14 15 19 21 42 82 100 67 100 100 100 86 78 68 54 54 83 100 100
97 100 98 88 86 93 96 81 71 68 70 73 66 58 50 48 41 34 25 17 18 18 18 18 12 13 15 16 16 20 17 31 70 86 72 67 93 94 97 76 66 52 73 94 85 100 100
100 98 94 88 96 89 86 81 79 83 88 72 54 43 41 42 31 25 19 18 18 18 20 16 12 14 17 18 18 21 31 47 80 76 41 71 91 96 91 67 60 63 75 85 94 100 100
100 99 98 88 90 93 88 79 87 72 64 60 46 35 29 34 26 21 19 17 18 20 18 13 14 16 21 23 21 32 61 67 54 50 44 73 94 87 81 68 61 61 75 95 100 100 100
96 100 100 97 94 95 90 86 74 64 50 46 40 28 26 28 22 18 17 17 19 20 15 14 16 17 23 29 42 90 83 56 44 66 70 92 76 80 72 67 63 71 100 100 100 100 100
97 94 94 96 88 80 73 66 54 44 46 42 28 24 20 21 18 16 17 17 20 17 14 17 16 19 25 24 26 31 25 41 47 67 99 81 92 86 79 67 77 100 100 100 100 100 100
98 88 85 78 67 61 56 52 42 36 30 28 26 20 19 17 16 15 17 17 18 14 15 18 18 20 23 27 24 22 28 42 57 82 86 93 100 98 76 66 92 100 100 100 100 100 100
92 88 78 67 59 54 43 38 35 30 28 28 20 16 15 16 16 15 18 18 14 14 17 18 21 23 23 24 24 29 38 52 76 90 92 97 100 95 71 62 86 100 100 100 100 100 100
83 64 56 60 50 38 34 33 35 26 23 20 18 14 13 16 15 18 17 14 13 13 16 17 22 24 22 20 22 38 49 68 83 95 85 100 100 79 66 61 85 100 100 100 100 100 98